Location: Unspecified
(0.0000°N, 0.0000°E)
Time: 15:59:51
(UTC+00:00)

Interbol-2 - Pass Details

Date: 12 June 2023
Orbit: 911 x 19062 km, 62.8° (Epoch: 28 September)

Event Time Altitude Azimuth Distance (km) Brightness Sun altitude
Rises 17:17:34 0° 167° (SSE) 6,220 9.8 9.7°
Reaches altitude 10° 17:21:20 10° 154° (SSE) 6,127 9.7 8.9°
Maximum altitude 17:45:27 33° 88° (E) 9,680 10.7 3.3°
Drops below altitude 10° 19:34:50 10° 30° (NNE) 23,270 12.9 -21.7°
Sets 20:15:25 0° 26° (NNE) 24,358 13.1 -30.8°
